TAP238 LPMA-LPPS

Flight info

Callsign TAP238
Flight time 0h 13m
Altitude 6000
Route MARCU
Aircraft A20N/M-SDE2E3FGHIRWXY/LB1

Departure

Time 2026-05-06 23:36
Airport Cristiano Ronaldo International Airport (LPMA)

Arrival

Time 2026-05-06 23:50
Airport Porto Santo Airport (LPPS)
Time Latitude Longitude Altitude Speed Heading
2026-05-06 23:36 32.73776 -16.67917 5626 ft 240 kts 67°
2026-05-06 23:36 32.74409 -16.65947 5977 ft 271 kts 67°
2026-05-06 23:37 32.75125 -16.63788 6005 ft 299 kts 67°
2026-05-06 23:37 32.75655 -16.62201 6003 ft 321 kts 67°
2026-05-06 23:37 32.76489 -16.59702 6002 ft 321 kts 66°
2026-05-06 23:37 32.77905 -16.56833 6004 ft 293 kts 53°
2026-05-06 23:38 32.79032 -16.54915 5997 ft 275 kts 52°
2026-05-06 23:38 32.80137 -16.53077 5603 ft 273 kts 52°
2026-05-06 23:38 32.81252 -16.51260 5210 ft 268 kts 51°
2026-05-06 23:38 32.82345 -16.49494 4650 ft 264 kts 51°
2026-05-06 23:39 32.83071 -16.48332 4255 ft 263 kts 51°
2026-05-06 23:39 32.84152 -16.46600 3774 ft 256 kts 51°
2026-05-06 23:39 32.85190 -16.44937 3439 ft 245 kts 51°
2026-05-06 23:39 32.86189 -16.43339 3133 ft 235 kts 52°
2026-05-06 23:40 32.87528 -16.41199 3018 ft 242 kts 51°
2026-05-06 23:40 32.88497 -16.39638 2997 ft 228 kts 51°
2026-05-06 23:40 32.89123 -16.38629 3014 ft 218 kts 51°
2026-05-06 23:40 32.89985 -16.37238 3000 ft 204 kts 51°
2026-05-06 23:41 32.90794 -16.35932 2992 ft 189 kts 51°
2026-05-06 23:41 32.91710 -16.34930 2933 ft 178 kts 17°
2026-05-06 23:41 32.92939 -16.34693 2846 ft 182 kts
2026-05-06 23:41 32.94197 -16.34625 2877 ft 177 kts 360°
2026-05-06 23:42 32.95422 -16.34594 2776 ft 176 kts 359°
2026-05-06 23:42 32.96656 -16.34593 2553 ft 175 kts 358°
2026-05-06 23:42 32.97845 -16.34629 2309 ft 168 kts 356°
2026-05-06 23:42 32.98987 -16.34693 2061 ft 162 kts 356°
2026-05-06 23:43 33.00076 -16.34780 1806 ft 155 kts 355°
2026-05-06 23:43 33.01091 -16.34797 1569 ft 138 kts
2026-05-06 23:43 33.02007 -16.34828 1290 ft 127 kts 356°
2026-05-06 23:43 33.02870 -16.34846 1040 ft 122 kts 359°
2026-05-06 23:44 33.03710 -16.34859 795 ft 117 kts 359°
2026-05-06 23:44 33.04514 -16.34871 594 ft 117 kts 357°
2026-05-06 23:44 33.05309 -16.34907 426 ft 109 kts 355°
2026-05-06 23:44 33.06118 -16.34945 303 ft 123 kts 357°
2026-05-06 23:45 33.06926 -16.34969 255 ft 110 kts 358°
2026-05-06 23:45 33.07627 -16.35011 246 ft 119 kts 357°
2026-05-06 23:45 33.08613 -16.35081 522 ft 150 kts 355°
2026-05-06 23:45 33.09487 -16.35631 1338 ft 155 kts 307°
2026-05-06 23:46 33.09470 -16.37019 1472 ft 198 kts 241°
2026-05-06 23:46 33.08240 -16.37947 2007 ft 227 kts 190°
2026-05-06 23:46 33.06637 -16.38037 2190 ft 227 kts 175°
2026-05-06 23:46 33.05092 -16.37936 2154 ft 218 kts 175°
2026-05-06 23:47 33.03609 -16.37796 2133 ft 215 kts 174°
2026-05-06 23:47 33.02122 -16.37642 2022 ft 214 kts 174°
2026-05-06 23:47 33.00652 -16.37404 1705 ft 212 kts 154°
2026-05-06 23:47 32.99861 -16.36201 1542 ft 172 kts 91°
2026-05-06 23:48 33.00395 -16.35215 1211 ft 145 kts 13°
2026-05-06 23:48 33.01324 -16.35099 1071 ft 127 kts
2026-05-06 23:48 33.02176 -16.34959 990 ft 121 kts
2026-05-06 23:48 33.03024 -16.34893 843 ft 123 kts
2026-05-06 23:49 33.03874 -16.34885 732 ft 122 kts
2026-05-06 23:49 33.04736 -16.34894 554 ft 125 kts 358°
2026-05-06 23:49 33.05599 -16.34918 387 ft 121 kts 357°
2026-05-06 23:49 33.06432 -16.34955 261 ft 113 kts 359°
2026-05-06 23:50 33.07142 -16.34980 250 ft 90 kts 357°
2026-05-06 23:50 33.07904 -16.35019 241 ft 48 kts 359°
2026-05-06 23:50 33.08055 -16.34975 245 ft 4 kts 264°
2026-05-06 23:51 33.07927 -16.35013 241 ft 33 kts 180°
2026-05-06 23:51 33.07641 -16.35004 245 ft 51 kts 181°
2026-05-06 23:51 33.07221 -16.34982 252 ft 68 kts 178°
2026-05-06 23:51 33.06969 -16.34928 251 ft 13 kts 99°
2026-05-06 23:52 33.06970 -16.34787 248 ft 22 kts 86°
2026-05-06 23:52 33.07036 -16.34714 248 ft 9 kts 350°
2026-05-06 23:52 33.07067 -16.34668 248 ft 9 kts 76°
2026-05-06 23:52 33.07049 -16.34626 248 ft 3 kts 184°
2026-05-06 23:53 33.07031 -16.34662 248 ft 0 kts 239°
2026-05-06 23:53 33.07030 -16.34663 248 ft 0 kts 236°